KAL9795 RKPK-RJFR

Flight info

Callsign KAL9795
Flight time 0h 34m
Altitude 21000
Route BURIM3 BESNA Y209 IKE A595 DGC V28 SWE
Aircraft B738/M-SDE2E3FGHIRWXY/LB1

Departure

Time 2026-04-26 13:30
Airport Gimhae International Airport (RKPK)

Arrival

Time 2026-04-26 14:05
Airport Kitakyushu Airport (RJFR)
Time Latitude Longitude Altitude Speed Heading
2026-04-26 13:06 35.17135 128.94587 22 ft 0 kts 85°
2026-04-26 13:18 35.17132 128.94542 26 ft 4 kts 86°
2026-04-26 13:18 35.17129 128.94510 26 ft 4 kts 69°
2026-04-26 13:18 35.17093 128.94493 22 ft 4 kts 354°
2026-04-26 13:19 35.17072 128.94496 23 ft 0 kts 354°
2026-04-26 13:21 35.17076 128.94495 23 ft 3 kts 354°
2026-04-26 13:21 35.17104 128.94492 26 ft 7 kts 354°
2026-04-26 13:21 35.17172 128.94483 22 ft 7 kts 354°
2026-04-26 13:21 35.17223 128.94477 22 ft 7 kts 354°
2026-04-26 13:22 35.17278 128.94469 24 ft 8 kts 354°
2026-04-26 13:22 35.17334 128.94462 22 ft 8 kts 354°
2026-04-26 13:22 35.17388 128.94456 24 ft 8 kts 354°
2026-04-26 13:22 35.17440 128.94449 22 ft 7 kts 354°
2026-04-26 13:23 35.17490 128.94443 22 ft 7 kts 354°
2026-04-26 13:23 35.17557 128.94434 22 ft 11 kts 354°
2026-04-26 13:23 35.17637 128.94424 24 ft 11 kts 354°
2026-04-26 13:23 35.17710 128.94400 22 ft 12 kts 327°
2026-04-26 13:24 35.17752 128.94312 22 ft 12 kts 292°
2026-04-26 13:24 35.17795 128.94226 23 ft 12 kts 324°
2026-04-26 13:24 35.17876 128.94206 22 ft 13 kts 354°
2026-04-26 13:24 35.17976 128.94193 22 ft 15 kts 354°
2026-04-26 13:25 35.18081 128.94179 22 ft 15 kts 354°
2026-04-26 13:25 35.18182 128.94166 22 ft 14 kts 354°
2026-04-26 13:25 35.18278 128.94154 22 ft 14 kts 354°
2026-04-26 13:25 35.18370 128.94142 22 ft 13 kts 354°
2026-04-26 13:26 35.18461 128.94131 23 ft 14 kts 354°
2026-04-26 13:26 35.18567 128.94118 22 ft 16 kts 354°
2026-04-26 13:26 35.18678 128.94104 23 ft 16 kts 354°
2026-04-26 13:26 35.18782 128.94090 22 ft 15 kts 354°
2026-04-26 13:27 35.18884 128.94077 22 ft 14 kts 354°
2026-04-26 13:27 35.18982 128.94064 22 ft 14 kts 354°
2026-04-26 13:27 35.19075 128.94051 24 ft 13 kts 354°
2026-04-26 13:27 35.19164 128.94041 22 ft 13 kts 355°
2026-04-26 13:28 35.19252 128.94031 24 ft 12 kts 355°
2026-04-26 13:28 35.19337 128.94021 22 ft 12 kts 354°
2026-04-26 13:28 35.19405 128.93977 22 ft 10 kts 291°
2026-04-26 13:28 35.19400 128.93891 22 ft 10 kts 263°
2026-04-26 13:29 35.19392 128.93806 22 ft 10 kts 263°
2026-04-26 13:29 35.19373 128.93759 23 ft 10 kts 207°
2026-04-26 13:29 35.19275 128.93761 23 ft 24 kts 174°
2026-04-26 13:29 35.18848 128.93816 26 ft 99 kts 174°
2026-04-26 13:30 35.17939 128.93934 32 ft 160 kts 174°
2026-04-26 13:30 35.16754 128.94067 585 ft 175 kts 174°
2026-04-26 13:30 35.15502 128.94174 1383 ft 185 kts 178°
2026-04-26 13:30 35.14184 128.94246 2305 ft 189 kts 179°
2026-04-26 13:31 35.12821 128.94297 3029 ft 206 kts 179°
2026-04-26 13:31 35.11315 128.94357 3194 ft 226 kts 180°
2026-04-26 13:31 35.09673 128.94411 3574 ft 244 kts 179°
2026-04-26 13:31 35.07948 128.94468 4112 ft 252 kts 179°
2026-04-26 13:32 35.06198 128.94513 4689 ft 256 kts 179°
2026-04-26 13:32 35.04412 128.94555 4995 ft 258 kts 179°
2026-04-26 13:32 35.02620 128.94599 4991 ft 256 kts 179°
2026-04-26 13:32 35.00844 128.94643 4998 ft 255 kts 179°
2026-04-26 13:33 34.99055 128.94696 5018 ft 263 kts 178°
2026-04-26 13:33 34.97170 128.94783 5022 ft 276 kts 178°
2026-04-26 13:33 34.95239 128.94878 5011 ft 278 kts 178°
2026-04-26 13:33 34.93303 128.94971 5002 ft 278 kts 178°
2026-04-26 13:34 34.91371 128.95063 4998 ft 278 kts 178°
2026-04-26 13:34 34.89446 128.95234 4990 ft 278 kts 167°
2026-04-26 13:34 34.87664 128.96165 5157 ft 282 kts 150°
2026-04-26 13:34 34.86524 128.96933 5626 ft 283 kts 150°
2026-04-26 13:35 34.84240 128.98472 6622 ft 284 kts 150°
2026-04-26 13:35 34.82509 128.99636 7334 ft 285 kts 150°
2026-04-26 13:35 34.80762 129.00804 8048 ft 288 kts 150°
2026-04-26 13:35 34.78995 129.01982 8798 ft 290 kts 151°
2026-04-26 13:36 34.77222 129.03160 9599 ft 290 kts 152°
2026-04-26 13:36 34.75443 129.04341 10319 ft 294 kts 152°
2026-04-26 13:36 34.73581 129.05574 10536 ft 316 kts 152°
2026-04-26 13:36 34.71578 129.06899 10702 ft 338 kts 152°
2026-04-26 13:37 34.69448 129.08307 10928 ft 357 kts 152°
2026-04-26 13:37 34.67254 129.09759 11324 ft 368 kts 152°
2026-04-26 13:37 34.64995 129.11252 11969 ft 371 kts 152°
2026-04-26 13:37 34.62717 129.12756 12650 ft 374 kts 153°
2026-04-26 13:38 34.60434 129.14329 13281 ft 380 kts 150°
2026-04-26 13:38 34.58156 129.16011 13893 ft 385 kts 150°
2026-04-26 13:38 34.55872 129.17738 14506 ft 389 kts 149°
2026-04-26 13:38 34.53567 129.19486 15162 ft 392 kts 149°
2026-04-26 13:39 34.51241 129.21243 15816 ft 395 kts 150°
2026-04-26 13:39 34.48894 129.23007 16449 ft 399 kts 150°
2026-04-26 13:39 34.46515 129.24787 17058 ft 403 kts 150°
2026-04-26 13:39 34.44119 129.26574 17652 ft 407 kts 150°
2026-04-26 13:40 34.41693 129.28379 18241 ft 411 kts 150°
2026-04-26 13:40 34.39273 129.30177 18751 ft 415 kts 150°
2026-04-26 13:40 34.36806 129.32011 19274 ft 418 kts 150°
2026-04-26 13:40 34.34310 129.33863 19788 ft 422 kts 150°
2026-04-26 13:41 34.31791 129.35730 20292 ft 425 kts 150°
2026-04-26 13:41 34.30114 129.36973 20623 ft 428 kts 150°
2026-04-26 13:41 34.26688 129.39510 20944 ft 437 kts 150°
2026-04-26 13:41 34.24060 129.41453 20955 ft 446 kts 150°
2026-04-26 13:42 34.21393 129.43425 20958 ft 450 kts 150°
2026-04-26 13:42 34.19622 129.44734 20949 ft 448 kts 150°
2026-04-26 13:42 34.16121 129.47322 20939 ft 444 kts 150°
2026-04-26 13:42 34.14341 129.48636 20941 ft 443 kts 150°
2026-04-26 13:43 34.11712 129.50576 20949 ft 442 kts 150°
2026-04-26 13:43 34.09086 129.52511 20951 ft 443 kts 150°
2026-04-26 13:43 34.06452 129.54451 20953 ft 444 kts 150°
2026-04-26 13:43 34.03810 129.56398 20953 ft 445 kts 150°
2026-04-26 13:44 34.01201 129.58334 20951 ft 447 kts 149°
2026-04-26 13:44 33.98544 129.60307 20949 ft 448 kts 150°
2026-04-26 13:44 33.95882 129.62280 20943 ft 449 kts 150°
2026-04-26 13:44 33.93212 129.64233 20942 ft 449 kts 150°
2026-04-26 13:45 33.90524 129.66181 20940 ft 450 kts 150°
2026-04-26 13:45 33.87839 129.68123 20939 ft 450 kts 150°
2026-04-26 13:45 33.85153 129.70070 20943 ft 449 kts 150°
2026-04-26 13:45 33.82526 129.71982 20921 ft 433 kts 150°
2026-04-26 13:46 33.80000 129.73848 20924 ft 423 kts 150°
2026-04-26 13:46 33.77542 129.75756 20924 ft 419 kts 142°
2026-04-26 13:46 33.75592 129.78338 20947 ft 421 kts 123°
2026-04-26 13:46 33.74338 129.81517 20570 ft 423 kts 104°
2026-04-26 13:47 33.73820 129.84942 20493 ft 410 kts 97°
2026-04-26 13:47 33.73450 129.88351 20506 ft 414 kts 96°
2026-04-26 13:47 33.73099 129.91752 20514 ft 418 kts 96°
2026-04-26 13:47 33.72733 129.95224 20508 ft 419 kts 96°
2026-04-26 13:48 33.72356 129.98660 20304 ft 410 kts 96°
2026-04-26 13:48 33.71976 130.02015 19864 ft 408 kts 97°
2026-04-26 13:48 33.71586 130.05386 19275 ft 408 kts 97°
2026-04-26 13:48 33.71191 130.08762 18724 ft 408 kts 97°
2026-04-26 13:49 33.70795 130.12124 18245 ft 405 kts 97°
2026-04-26 13:49 33.70400 130.15462 17749 ft 402 kts 97°
2026-04-26 13:49 33.70009 130.18767 17277 ft 398 kts 97°
2026-04-26 13:49 33.69620 130.22050 16807 ft 394 kts 97°
2026-04-26 13:50 33.69236 130.25292 16336 ft 391 kts 97°
2026-04-26 13:50 33.68854 130.28509 15867 ft 388 kts 98°
2026-04-26 13:50 33.68473 130.31705 15405 ft 385 kts 98°
2026-04-26 13:50 33.68094 130.34874 14956 ft 382 kts 97°
2026-04-26 13:51 33.67938 130.38041 14502 ft 379 kts 87°
2026-04-26 13:51 33.68246 130.41163 14075 ft 375 kts 77°
2026-04-26 13:51 33.68976 130.44152 13639 ft 371 kts 70°
2026-04-26 13:51 33.69822 130.47065 13192 ft 368 kts 69°
2026-04-26 13:52 33.70675 130.49946 12781 ft 363 kts 69°
2026-04-26 13:52 33.71514 130.52796 12359 ft 359 kts 70°
2026-04-26 13:52 33.72325 130.55582 11942 ft 356 kts 70°
2026-04-26 13:52 33.73129 130.58375 11657 ft 349 kts 70°
2026-04-26 13:53 33.73899 130.61069 11428 ft 334 kts 70°
2026-04-26 13:53 33.74636 130.63658 11207 ft 320 kts 70°
2026-04-26 13:53 33.75339 130.66134 10937 ft 307 kts 70°
2026-04-26 13:53 33.76016 130.68519 10681 ft 296 kts 70°
2026-04-26 13:54 33.76669 130.70819 10403 ft 286 kts 70°
2026-04-26 13:54 33.77305 130.73062 9945 ft 284 kts 70°
2026-04-26 13:54 33.77946 130.75323 9457 ft 283 kts 70°
2026-04-26 13:55 33.79183 130.79700 9177 ft 277 kts 70°
2026-04-26 13:55 33.79599 130.81173 9080 ft 272 kts 70°
2026-04-26 13:55 33.80945 130.85955 8964 ft 248 kts 70°
2026-04-26 13:56 33.81494 130.87906 8745 ft 245 kts 70°
2026-04-26 13:56 33.82038 130.89840 8260 ft 251 kts 70°
2026-04-26 13:56 33.82619 130.91906 7637 ft 265 kts 70°
2026-04-26 13:56 33.83214 130.94020 7285 ft 266 kts 70°
2026-04-26 13:57 33.83803 130.96124 6913 ft 263 kts 70°
2026-04-26 13:57 33.84388 130.98210 6495 ft 263 kts 70°
2026-04-26 13:57 33.84966 131.00274 6221 ft 257 kts 69°
2026-04-26 13:57 33.85342 131.02336 5908 ft 253 kts 90°
2026-04-26 13:58 33.84910 131.04367 5600 ft 251 kts 114°
2026-04-26 13:58 33.84042 131.06129 5385 ft 243 kts 121°
2026-04-26 13:58 33.83116 131.07799 5152 ft 236 kts 120°
2026-04-26 13:58 33.82435 131.09498 5053 ft 217 kts 99°
2026-04-26 13:59 33.82410 131.11227 4802 ft 204 kts 74°
2026-04-26 13:59 33.82896 131.12781 4504 ft 193 kts 60°
2026-04-26 13:59 33.83614 131.14050 4328 ft 177 kts 45°
2026-04-26 14:00 33.86825 131.15854 3342 ft 170 kts
2026-04-26 14:00 33.87981 131.15723 3145 ft 170 kts 348°
2026-04-26 14:00 33.88749 131.15430 3020 ft 173 kts 339°
2026-04-26 14:01 33.90113 131.14364 2775 ft 180 kts 317°
2026-04-26 14:01 33.90883 131.13186 2556 ft 182 kts 302°
2026-04-26 14:01 33.91371 131.11793 2342 ft 179 kts 285°
2026-04-26 14:01 33.91637 131.10339 2147 ft 174 kts 284°
2026-04-26 14:02 33.91912 131.08944 1957 ft 166 kts 284°
2026-04-26 14:02 33.92171 131.07624 1791 ft 160 kts 282°
2026-04-26 14:02 33.92229 131.06310 1583 ft 156 kts 263°
2026-04-26 14:02 33.91934 131.05059 1363 ft 156 kts 244°
2026-04-26 14:03 33.91313 131.03986 1201 ft 158 kts 224°
2026-04-26 14:03 33.90423 131.03222 1116 ft 155 kts 203°
2026-04-26 14:03 33.89395 131.02912 860 ft 152 kts 186°
2026-04-26 14:03 33.88316 131.02909 542 ft 156 kts 178°
2026-04-26 14:04 33.87245 131.03010 352 ft 153 kts 174°
2026-04-26 14:04 33.86192 131.03184 177 ft 151 kts 172°
2026-04-26 14:04 33.85177 131.03384 41 ft 141 kts 171°
2026-04-26 14:04 33.84370 131.03543 39 ft 88 kts 171°
2026-04-26 14:05 33.83995 131.03616 36 ft 25 kts 171°
2026-04-26 14:05 33.83925 131.03567 38 ft 9 kts 255°
2026-04-26 14:05 33.83917 131.03501 40 ft 7 kts 262°
2026-04-26 14:05 33.83925 131.03444 40 ft 7 kts 304°
2026-04-26 14:06 33.83968 131.03423 41 ft 7 kts 351°
2026-04-26 14:06 33.84015 131.03415 39 ft 7 kts 351°
2026-04-26 14:06 33.84053 131.03388 38 ft 7 kts 295°
2026-04-26 14:06 33.84044 131.03333 39 ft 7 kts 258°
2026-04-26 14:07 33.84036 131.03278 41 ft 7 kts 258°
2026-04-26 14:07 33.84032 131.03252 41 ft 0 kts 261°
2026-04-26 14:07 33.84032 131.03251 41 ft 0 kts 261°